EZS81QF LYBE-LSGG

Flight info

Callsign EZS81QF
Flight time 1h 49m
Altitude 36000
Route TUVAR4V/30R TUVAR DCT NASSY DCT KOTOR DCT PEVAL DCT NEVNI DCT OSKOR DCT SRN DCT AOSTA L615 BANKO
Aircraft A320/M-SDE2E3FGHIJ1RWXYZ/LB1

Departure

Time 2026-02-17 09:48
Airport Belgrade Nikola Tesla Airport (LYBE)

Arrival

Time 2026-02-17 11:37
Airport Geneva International Airport (LSGG)
Time Latitude Longitude Altitude Speed Heading
2026-02-17 09:15 44.81856 20.29201 309 ft 0 kts 302°
2026-02-17 09:21 44.81856 20.29202 309 ft 0 kts 302°
2026-02-17 09:35 44.81856 20.29203 306 ft 1 kts 302°
2026-02-17 09:35 44.81847 20.29222 287 ft 3 kts 302°
2026-02-17 09:35 44.81836 20.29246 309 ft 3 kts 308°
2026-02-17 09:35 44.81823 20.29265 305 ft 3 kts 334°
2026-02-17 09:36 44.81808 20.29270 306 ft 2 kts 28°
2026-02-17 09:36 44.81798 20.29263 309 ft 2 kts 32°
2026-02-17 09:36 44.81794 20.29259 308 ft 0 kts 32°
2026-02-17 09:39 44.81801 20.29265 307 ft 3 kts 32°
2026-02-17 09:39 44.81839 20.29299 307 ft 9 kts 32°
2026-02-17 09:39 44.81891 20.29343 308 ft 9 kts 31°
2026-02-17 09:39 44.81947 20.29391 307 ft 11 kts 31°
2026-02-17 09:40 44.82014 20.29450 307 ft 11 kts 32°
2026-02-17 09:40 44.82085 20.29512 307 ft 13 kts 32°
2026-02-17 09:40 44.82111 20.29605 307 ft 10 kts 119°
2026-02-17 09:40 44.82078 20.29675 307 ft 8 kts 121°
2026-02-17 09:41 44.82042 20.29758 307 ft 10 kts 121°
2026-02-17 09:41 44.82013 20.29826 307 ft 9 kts 121°
2026-02-17 09:41 44.81974 20.29915 307 ft 13 kts 123°
2026-02-17 09:41 44.81925 20.30021 306 ft 11 kts 122°
2026-02-17 09:42 44.81886 20.30110 307 ft 12 kts 122°
2026-02-17 09:42 44.81838 20.30218 306 ft 14 kts 122°
2026-02-17 09:42 44.81785 20.30340 307 ft 14 kts 121°
2026-02-17 09:43 44.81698 20.30534 309 ft 13 kts 122°
2026-02-17 09:43 44.81644 20.30656 308 ft 16 kts 122°
2026-02-17 09:43 44.81586 20.30787 308 ft 16 kts 122°
2026-02-17 09:43 44.81547 20.30876 308 ft 16 kts 122°
2026-02-17 09:44 44.81487 20.31010 306 ft 16 kts 122°
2026-02-17 09:44 44.81425 20.31149 306 ft 17 kts 123°
2026-02-17 09:44 44.81339 20.31345 306 ft 18 kts 121°
2026-02-17 09:44 44.81292 20.31451 308 ft 19 kts 123°
2026-02-17 09:45 44.81217 20.31614 307 ft 20 kts 122°
2026-02-17 09:45 44.81141 20.31789 307 ft 22 kts 122°
2026-02-17 09:45 44.81061 20.31968 306 ft 21 kts 122°
2026-02-17 09:45 44.80992 20.32129 306 ft 19 kts 114°
2026-02-17 09:46 44.81047 20.32281 305 ft 20 kts 28°
2026-02-17 09:46 44.81177 20.32294 307 ft 18 kts 348°
2026-02-17 09:46 44.81266 20.32208 308 ft 14 kts 300°
2026-02-17 09:47 44.81333 20.32063 309 ft 42 kts 302°
2026-02-17 09:47 44.81614 20.31430 306 ft 108 kts 302°
2026-02-17 09:47 44.82107 20.30318 307 ft 158 kts 304°
2026-02-17 09:47 44.82731 20.28990 900 ft 159 kts 304°
2026-02-17 09:48 44.83255 20.27629 1740 ft 158 kts 302°
2026-02-17 09:48 44.83831 20.26241 2176 ft 174 kts 307°
2026-02-17 09:48 44.84530 20.24709 2499 ft 196 kts 308°
2026-02-17 09:48 44.85312 20.23000 2831 ft 219 kts 307°
2026-02-17 09:49 44.86162 20.21123 3445 ft 232 kts 306°
2026-02-17 09:49 44.87025 20.19190 4363 ft 233 kts 306°
2026-02-17 09:49 44.87888 20.17236 5206 ft 236 kts 307°
2026-02-17 09:49 44.88756 20.15273 5970 ft 241 kts 307°
2026-02-17 09:50 44.89645 20.13259 6773 ft 243 kts 307°
2026-02-17 09:50 44.90545 20.11206 7441 ft 253 kts 304°
2026-02-17 09:50 44.91094 20.08718 7850 ft 278 kts 282°
2026-02-17 09:51 44.91581 20.03196 9324 ft 288 kts 281°
2026-02-17 09:51 44.91825 20.00379 10039 ft 291 kts 281°
2026-02-17 09:51 44.92078 19.97475 10428 ft 309 kts 280°
2026-02-17 09:51 44.92353 19.94355 10630 ft 331 kts 280°
2026-02-17 09:52 44.92640 19.91084 11159 ft 339 kts 279°
2026-02-17 09:52 44.92929 19.87750 11817 ft 344 kts 279°
2026-02-17 09:52 44.93220 19.84372 12476 ft 349 kts 278°
2026-02-17 09:52 44.93516 19.80954 13151 ft 353 kts 278°
2026-02-17 09:53 44.93812 19.77492 13741 ft 358 kts 277°
2026-02-17 09:53 44.94112 19.73984 14322 ft 361 kts 277°
2026-02-17 09:53 44.94416 19.70441 14923 ft 364 kts 277°
2026-02-17 09:53 44.94724 19.66871 15529 ft 367 kts 277°
2026-02-17 09:54 44.95030 19.63279 16141 ft 370 kts 276°
2026-02-17 09:54 44.95332 19.59704 16750 ft 373 kts 276°
2026-02-17 09:54 44.95638 19.56040 17369 ft 376 kts 275°
2026-02-17 09:55 44.96253 19.48655 18471 ft 381 kts 275°
2026-02-17 09:55 44.96565 19.44925 18996 ft 383 kts 275°
2026-02-17 09:55 44.96879 19.41180 19511 ft 385 kts 275°
2026-02-17 09:55 44.97192 19.37411 20028 ft 387 kts 274°
2026-02-17 09:56 44.97502 19.33625 20541 ft 389 kts 274°
2026-02-17 09:56 44.97809 19.29873 21040 ft 390 kts 274°
2026-02-17 09:56 44.98120 19.26061 21552 ft 392 kts 274°
2026-02-17 09:56 44.98433 19.22226 22045 ft 394 kts 274°
2026-02-17 09:57 44.98747 19.18369 22537 ft 396 kts 274°
2026-02-17 09:57 44.99062 19.14499 23016 ft 398 kts 274°
2026-02-17 09:57 44.99377 19.10608 23453 ft 399 kts 274°
2026-02-17 09:57 44.99694 19.06699 23845 ft 401 kts 274°
2026-02-17 09:58 45.00009 19.02774 24235 ft 403 kts 273°
2026-02-17 09:58 45.00322 18.98824 24614 ft 405 kts 273°
2026-02-17 09:58 45.00634 18.94866 24985 ft 407 kts 273°
2026-02-17 09:59 45.01255 18.86888 25692 ft 411 kts 273°
2026-02-17 09:59 45.01565 18.82862 26035 ft 413 kts 273°
2026-02-17 09:59 45.01877 18.78809 26384 ft 415 kts 273°
2026-02-17 09:59 45.02190 18.74748 26738 ft 417 kts 273°
2026-02-17 10:00 45.02506 18.70661 27075 ft 419 kts 273°
2026-02-17 10:00 45.02822 18.66551 27416 ft 421 kts 273°
2026-02-17 10:00 45.03136 18.62421 27759 ft 423 kts 273°
2026-02-17 10:00 45.03449 18.58269 28088 ft 425 kts 273°
2026-02-17 10:01 45.03762 18.54102 28415 ft 428 kts 273°
2026-02-17 10:01 45.04077 18.49909 28728 ft 430 kts 273°
2026-02-17 10:01 45.04393 18.45704 29043 ft 431 kts 273°
2026-02-17 10:01 45.04709 18.41480 29355 ft 433 kts 272°
2026-02-17 10:02 45.05024 18.37227 29642 ft 435 kts 272°
2026-02-17 10:02 45.05336 18.32966 29906 ft 437 kts 272°
2026-02-17 10:02 45.05649 18.28678 30147 ft 438 kts 272°
2026-02-17 10:03 45.06274 18.20083 30721 ft 438 kts 273°
2026-02-17 10:03 45.06574 18.15860 31055 ft 437 kts 273°
2026-02-17 10:03 45.06875 18.11595 31410 ft 435 kts 273°
2026-02-17 10:03 45.07176 18.07341 31768 ft 433 kts 274°
2026-02-17 10:04 45.07479 18.03106 32126 ft 432 kts 274°
2026-02-17 10:04 45.07778 17.98883 32477 ft 430 kts 274°
2026-02-17 10:04 45.08070 17.94674 32822 ft 429 kts 274°
2026-02-17 10:04 45.08360 17.90475 33150 ft 428 kts 275°
2026-02-17 10:05 45.08650 17.86295 33502 ft 426 kts 275°
2026-02-17 10:05 45.08937 17.82121 33802 ft 425 kts 275°
2026-02-17 10:05 45.09223 17.77952 34055 ft 425 kts 275°
2026-02-17 10:05 45.09507 17.73792 34304 ft 424 kts 275°
2026-02-17 10:06 45.09788 17.69687 34554 ft 423 kts 276°
2026-02-17 10:06 45.10070 17.65542 34788 ft 423 kts 276°
2026-02-17 10:06 45.10348 17.61406 35022 ft 422 kts 276°
2026-02-17 10:07 45.10897 17.53137 35474 ft 421 kts 276°
2026-02-17 10:07 45.11170 17.49002 35665 ft 421 kts 276°
2026-02-17 10:07 45.11442 17.44884 35742 ft 419 kts 276°
2026-02-17 10:08 45.11982 17.36700 35752 ft 416 kts 276°
2026-02-17 10:08 45.12511 17.28551 35751 ft 415 kts 276°
2026-02-17 10:09 45.13019 17.20453 35752 ft 415 kts 276°
2026-02-17 10:09 45.13523 17.12312 35749 ft 415 kts 276°
2026-02-17 10:10 45.14030 17.04178 35744 ft 415 kts 276°
2026-02-17 10:10 45.14536 16.96031 35745 ft 414 kts 276°
2026-02-17 10:11 45.15268 16.83875 35746 ft 414 kts 276°
2026-02-17 10:11 45.15755 16.75747 35741 ft 414 kts 276°
2026-02-17 10:12 45.16232 16.67618 35741 ft 413 kts 276°
2026-02-17 10:12 45.16705 16.59495 35740 ft 413 kts 276°
2026-02-17 10:13 45.17172 16.51377 35745 ft 414 kts 276°
2026-02-17 10:13 45.17638 16.43251 35743 ft 413 kts 276°
2026-02-17 10:14 45.18093 16.35126 35747 ft 413 kts 276°
2026-02-17 10:15 45.18760 16.22944 35752 ft 413 kts 276°
2026-02-17 10:15 45.19199 16.14887 35758 ft 413 kts 276°
2026-02-17 10:16 45.19640 16.06779 35756 ft 412 kts 276°
2026-02-17 10:16 45.20067 15.98688 35758 ft 411 kts 276°
2026-02-17 10:17 45.20488 15.90609 35755 ft 411 kts 276°
2026-02-17 10:17 45.20898 15.82508 35756 ft 411 kts 276°
2026-02-17 10:18 45.21309 15.74434 35757 ft 410 kts 276°
2026-02-17 10:18 45.21716 15.66356 35759 ft 410 kts 276°
2026-02-17 10:19 45.22309 15.54303 35759 ft 409 kts 276°
2026-02-17 10:19 45.22696 15.46250 35751 ft 409 kts 276°
2026-02-17 10:20 45.23078 15.38191 35765 ft 409 kts 276°
2026-02-17 10:20 45.23457 15.30146 35749 ft 408 kts 276°
2026-02-17 10:21 45.23827 15.22113 35752 ft 408 kts 276°
2026-02-17 10:21 45.24188 15.14088 35743 ft 407 kts 276°
2026-02-17 10:22 45.24545 15.06065 35749 ft 407 kts 276°
2026-02-17 10:23 45.25074 14.94048 35735 ft 406 kts 276°
2026-02-17 10:23 45.25421 14.86054 35738 ft 406 kts 276°
2026-02-17 10:24 45.25760 14.78053 35737 ft 405 kts 276°
2026-02-17 10:24 45.26085 14.70119 35741 ft 404 kts 276°
2026-02-17 10:25 45.26401 14.62155 35736 ft 404 kts 276°
2026-02-17 10:25 45.26725 14.54195 35736 ft 403 kts 276°
2026-02-17 10:26 45.27049 14.46251 35730 ft 403 kts 276°
2026-02-17 10:26 45.27354 14.38309 35729 ft 403 kts 276°
2026-02-17 10:27 45.27797 14.26456 35723 ft 402 kts 276°
2026-02-17 10:27 45.28089 14.18521 35717 ft 402 kts 276°
2026-02-17 10:28 45.28383 14.10596 35714 ft 401 kts 276°
2026-02-17 10:28 45.28666 14.02682 35712 ft 401 kts 276°
2026-02-17 10:29 45.28938 13.94774 35718 ft 401 kts 276°
2026-02-17 10:29 45.29210 13.86894 35715 ft 401 kts 276°
2026-02-17 10:30 45.29478 13.78999 35728 ft 401 kts 276°
2026-02-17 10:31 45.29823 13.68419 35733 ft 401 kts 276°
2026-02-17 10:31 45.30068 13.60507 35738 ft 401 kts 276°
2026-02-17 10:32 45.30308 13.52606 35739 ft 400 kts 276°
2026-02-17 10:32 45.30555 13.44750 35747 ft 400 kts 276°
2026-02-17 10:33 45.30793 13.36860 35741 ft 400 kts 276°
2026-02-17 10:33 45.31016 13.28972 35745 ft 399 kts 276°
2026-02-17 10:34 45.31605 13.21185 35742 ft 395 kts 283°
2026-02-17 10:34 45.32632 13.13505 35747 ft 395 kts 283°
2026-02-17 10:35 45.34139 13.01989 35754 ft 395 kts 283°
2026-02-17 10:35 45.35122 12.94352 35766 ft 394 kts 283°
2026-02-17 10:36 45.36111 12.86685 35763 ft 394 kts 283°
2026-02-17 10:36 45.37095 12.79017 35766 ft 393 kts 283°
2026-02-17 10:37 45.38066 12.71421 35763 ft 393 kts 283°
2026-02-17 10:37 45.39042 12.63776 35763 ft 393 kts 283°
2026-02-17 10:38 45.40012 12.56121 35763 ft 392 kts 283°
2026-02-17 10:39 45.41435 12.44711 35762 ft 392 kts 283°
2026-02-17 10:39 45.42387 12.37070 35766 ft 391 kts 283°
2026-02-17 10:40 45.43339 12.29463 35765 ft 390 kts 283°
2026-02-17 10:40 45.44273 12.21860 35765 ft 390 kts 283°
2026-02-17 10:41 45.45202 12.14258 35755 ft 389 kts 283°
2026-02-17 10:41 45.46131 12.06675 35754 ft 389 kts 283°
2026-02-17 10:42 45.47048 11.99088 35750 ft 388 kts 283°
2026-02-17 10:42 45.47960 11.91508 35751 ft 388 kts 283°
2026-02-17 10:43 45.49320 11.80120 35749 ft 388 kts 283°
2026-02-17 10:43 45.50211 11.72583 35745 ft 388 kts 283°
2026-02-17 10:44 45.51102 11.64982 35745 ft 388 kts 283°
2026-02-17 10:44 45.51986 11.57393 35736 ft 387 kts 283°
2026-02-17 10:45 45.52871 11.49817 35733 ft 387 kts 283°
2026-02-17 10:45 45.53753 11.42244 35730 ft 387 kts 283°
2026-02-17 10:46 45.54626 11.34681 35727 ft 386 kts 283°
2026-02-17 10:47 45.55912 11.23448 35743 ft 386 kts 283°
2026-02-17 10:47 45.56769 11.15884 35750 ft 385 kts 283°
2026-02-17 10:48 45.57622 11.08325 35754 ft 385 kts 283°
2026-02-17 10:48 45.58464 11.00786 35754 ft 385 kts 283°
2026-02-17 10:49 45.59296 10.93242 35753 ft 384 kts 283°
2026-02-17 10:49 45.60126 10.85701 35747 ft 384 kts 283°
2026-02-17 10:50 45.60950 10.78219 35741 ft 384 kts 283°
2026-02-17 10:50 45.61774 10.70700 35733 ft 383 kts 283°
2026-02-17 10:51 45.63002 10.59423 35734 ft 382 kts 283°
2026-02-17 10:51 45.63805 10.51936 35738 ft 381 kts 283°
2026-02-17 10:52 45.64601 10.44434 35749 ft 381 kts 283°
2026-02-17 10:52 45.64861 10.36858 35755 ft 385 kts 276°
2026-02-17 10:53 45.64886 10.29195 35730 ft 385 kts 276°
2026-02-17 10:53 45.64903 10.21544 35733 ft 385 kts 276°
2026-02-17 10:54 45.64913 10.13916 35732 ft 384 kts 275°
2026-02-17 10:55 45.64930 10.02524 35774 ft 383 kts 276°
2026-02-17 10:55 45.64938 9.94921 35788 ft 383 kts 276°
2026-02-17 10:56 45.64939 9.87319 35796 ft 382 kts 276°
2026-02-17 10:56 45.64935 9.79733 35798 ft 382 kts 276°
2026-02-17 10:57 45.64924 9.72137 35794 ft 381 kts 276°
2026-02-17 10:57 45.64912 9.64563 35793 ft 381 kts 275°
2026-02-17 10:58 45.64889 9.56999 35794 ft 381 kts 275°
2026-02-17 10:58 45.64876 9.53214 35630 ft 381 kts 275°
2026-02-17 10:58 45.64866 9.49484 35630 ft 380 kts 276°
2026-02-17 10:59 45.64828 9.38096 35674 ft 387 kts 275°
2026-02-17 10:59 45.64794 9.30312 35704 ft 397 kts 275°
2026-02-17 11:00 45.64788 9.28967 35712 ft 399 kts 275°
2026-02-17 11:00 45.64744 9.22297 35859 ft 406 kts 275°
2026-02-17 11:01 45.64691 9.14211 35855 ft 407 kts 275°
2026-02-17 11:01 45.64628 9.06372 35855 ft 407 kts 275°
2026-02-17 11:02 45.64971 8.98226 35859 ft 401 kts 282°
2026-02-17 11:03 45.66119 8.86385 35874 ft 400 kts 282°
2026-02-17 11:03 45.66869 8.78551 35873 ft 400 kts 282°
2026-02-17 11:04 45.67622 8.70675 35881 ft 399 kts 282°
2026-02-17 11:04 45.68367 8.62805 35885 ft 398 kts 282°
2026-02-17 11:05 45.69097 8.54971 35882 ft 397 kts 282°
2026-02-17 11:05 45.69820 8.47164 35878 ft 396 kts 282°
2026-02-17 11:06 45.70533 8.39399 35879 ft 395 kts 282°
2026-02-17 11:06 45.71243 8.31628 35864 ft 394 kts 282°
2026-02-17 11:07 45.72296 8.19985 35868 ft 392 kts 282°
2026-02-17 11:07 45.72989 8.12253 35872 ft 390 kts 283°
2026-02-17 11:08 45.73672 8.04571 35879 ft 388 kts 283°
2026-02-17 11:08 45.74346 7.96897 35887 ft 388 kts 283°
2026-02-17 11:09 45.75016 7.89240 35892 ft 387 kts 283°
2026-02-17 11:09 45.75679 7.81652 35907 ft 386 kts 283°
2026-02-17 11:10 45.76333 7.74042 35928 ft 384 kts 283°
2026-02-17 11:11 45.77292 7.62670 35936 ft 382 kts 283°
2026-02-17 11:11 45.77928 7.55137 35941 ft 380 kts 283°
2026-02-17 11:12 45.78551 7.47657 35538 ft 371 kts 283°
2026-02-17 11:12 45.78840 7.44073 35148 ft 353 kts 283°
2026-02-17 11:12 45.79110 7.40636 34736 ft 344 kts 284°
2026-02-17 11:12 45.79386 7.37264 34330 ft 337 kts 284°
2026-02-17 11:13 45.79665 7.33965 33872 ft 332 kts 284°
2026-02-17 11:13 45.79946 7.30687 33278 ft 330 kts 284°
2026-02-17 11:13 45.80218 7.27456 32766 ft 322 kts 285°
2026-02-17 11:13 45.80476 7.24340 32269 ft 317 kts 285°
2026-02-17 11:14 45.80733 7.21188 31794 ft 310 kts 286°
2026-02-17 11:14 45.80967 7.18200 31342 ft 294 kts 287°
2026-02-17 11:14 45.81182 7.15397 30904 ft 278 kts 286°
2026-02-17 11:15 45.81592 7.10139 30118 ft 255 kts 288°
2026-02-17 11:15 45.81812 7.07671 29718 ft 244 kts 291°
2026-02-17 11:15 45.82270 7.05419 29378 ft 229 kts 298°
2026-02-17 11:15 45.82982 7.03419 29052 ft 221 kts 305°
2026-02-17 11:16 45.83847 7.01620 28759 ft 217 kts 306°
2026-02-17 11:16 45.84700 6.99845 28464 ft 214 kts 306°
2026-02-17 11:16 45.85533 6.98101 28167 ft 211 kts 305°
2026-02-17 11:16 45.86364 6.96348 27868 ft 215 kts 304°
2026-02-17 11:17 45.87221 6.94541 27578 ft 221 kts 305°
2026-02-17 11:17 45.88079 6.92742 27278 ft 220 kts 306°
2026-02-17 11:17 45.88945 6.90929 26968 ft 221 kts 306°
2026-02-17 11:17 45.89815 6.89106 26653 ft 222 kts 306°
2026-02-17 11:18 45.90687 6.87277 26328 ft 223 kts 306°
2026-02-17 11:18 45.91566 6.85431 26002 ft 223 kts 306°
2026-02-17 11:18 45.92439 6.83589 25664 ft 222 kts 306°
2026-02-17 11:19 45.93900 6.80500 25115 ft 227 kts 305°
2026-02-17 11:19 45.95076 6.78023 24605 ft 227 kts 306°
2026-02-17 11:19 45.95676 6.76757 24348 ft 228 kts 305°
2026-02-17 11:19 45.96858 6.74235 23846 ft 230 kts 305°
2026-02-17 11:20 45.97749 6.72320 23437 ft 231 kts 305°
2026-02-17 11:20 45.98642 6.70394 23017 ft 232 kts 304°
2026-02-17 11:20 45.99244 6.69094 22812 ft 230 kts 304°
2026-02-17 11:20 46.00113 6.67219 22675 ft 222 kts 304°
2026-02-17 11:21 46.00959 6.65389 22344 ft 218 kts 304°
2026-02-17 11:21 46.01798 6.63569 22014 ft 218 kts 304°
2026-02-17 11:21 46.02638 6.61747 21659 ft 219 kts 304°
2026-02-17 11:21 46.03486 6.59911 21196 ft 222 kts 304°
2026-02-17 11:22 46.04374 6.57993 20620 ft 238 kts 304°
2026-02-17 11:22 46.05310 6.55967 20228 ft 247 kts 303°
2026-02-17 11:22 46.06274 6.53904 19842 ft 250 kts 303°
2026-02-17 11:23 46.08227 6.49780 19064 ft 252 kts 303°
2026-02-17 11:23 46.09219 6.47684 18663 ft 254 kts 303°
2026-02-17 11:23 46.10222 6.45564 18263 ft 258 kts 303°
2026-02-17 11:23 46.11233 6.43422 17821 ft 259 kts 303°
2026-02-17 11:24 46.12252 6.41262 17419 ft 261 kts 303°
2026-02-17 11:24 46.13274 6.39095 17040 ft 261 kts 303°
2026-02-17 11:24 46.14290 6.36942 16731 ft 257 kts 303°
2026-02-17 11:24 46.15280 6.34846 16601 ft 249 kts 302°
2026-02-17 11:25 46.16240 6.32803 16446 ft 243 kts 302°
2026-02-17 11:25 46.17219 6.30836 16172 ft 241 kts 310°
2026-02-17 11:25 46.18580 6.29402 15878 ft 247 kts 330°
2026-02-17 11:25 46.20289 6.28848 15559 ft 261 kts 352°
2026-02-17 11:26 46.22087 6.29391 15271 ft 279 kts 16°
2026-02-17 11:26 46.23685 6.31114 14956 ft 295 kts 37°
2026-02-17 11:26 46.25133 6.33236 14633 ft 297 kts 37°
2026-02-17 11:27 46.28008 6.37518 14102 ft 296 kts 38°
2026-02-17 11:27 46.29447 6.39652 13736 ft 298 kts 38°
2026-02-17 11:27 46.30910 6.41815 13321 ft 300 kts 38°
2026-02-17 11:27 46.32352 6.43956 12915 ft 296 kts 38°
2026-02-17 11:28 46.33778 6.46081 12506 ft 292 kts 38°
2026-02-17 11:28 46.35173 6.48165 12228 ft 282 kts 38°
2026-02-17 11:28 46.36524 6.50185 11876 ft 276 kts 38°
2026-02-17 11:28 46.37911 6.52050 11547 ft 263 kts 22°
2026-02-17 11:29 46.39523 6.52851 11406 ft 232 kts 354°
2026-02-17 11:29 46.41028 6.52541 11268 ft 211 kts 330°
2026-02-17 11:29 46.42207 6.51427 11030 ft 199 kts 310°
2026-02-17 11:29 46.43194 6.50018 10721 ft 200 kts 310°
2026-02-17 11:30 46.44204 6.48581 10187 ft 212 kts 310°
2026-02-17 11:30 46.45273 6.47026 9581 ft 222 kts 306°
2026-02-17 11:30 46.45871 6.44982 8933 ft 225 kts 272°
2026-02-17 11:31 46.44290 6.41203 7864 ft 234 kts 226°
2026-02-17 11:31 46.43109 6.39590 7308 ft 232 kts 231°
2026-02-17 11:31 46.41990 6.37913 6796 ft 231 kts 232°
2026-02-17 11:31 46.40887 6.36228 6291 ft 230 kts 231°
2026-02-17 11:32 46.39785 6.34552 5837 ft 229 kts 231°
2026-02-17 11:32 46.38684 6.32896 5344 ft 227 kts 230°
2026-02-17 11:32 46.37619 6.31287 5120 ft 213 kts 230°
2026-02-17 11:32 46.36615 6.29788 4881 ft 202 kts 229°
2026-02-17 11:33 46.35636 6.28335 4613 ft 200 kts 229°
2026-02-17 11:33 46.34673 6.26911 4341 ft 193 kts 228°
2026-02-17 11:33 46.33753 6.25553 4100 ft 184 kts 228°
2026-02-17 11:33 46.32885 6.24272 3830 ft 174 kts 227°
2026-02-17 11:34 46.32065 6.23061 3612 ft 162 kts 227°
2026-02-17 11:34 46.31303 6.21935 3380 ft 151 kts 226°
2026-02-17 11:34 46.30582 6.20871 3166 ft 146 kts 226°
2026-02-17 11:35 46.29194 6.18826 2687 ft 137 kts 225°
2026-02-17 11:35 46.28532 6.17850 2451 ft 135 kts 225°
2026-02-17 11:35 46.27880 6.16900 2219 ft 135 kts 224°
2026-02-17 11:35 46.27230 6.15931 2011 ft 134 kts 224°
2026-02-17 11:36 46.26574 6.14980 1833 ft 132 kts 224°
2026-02-17 11:36 46.25936 6.14021 1676 ft 133 kts 223°
2026-02-17 11:36 46.25285 6.13070 1468 ft 133 kts 224°
2026-02-17 11:36 46.24653 6.12137 1371 ft 122 kts 223°
2026-02-17 11:37 46.24148 6.11408 1375 ft 80 kts 226°
2026-02-17 11:37 46.23865 6.10993 1379 ft 32 kts 226°
2026-02-17 11:37 46.23740 6.10823 1382 ft 21 kts 215°
2026-02-17 11:37 46.23629 6.10749 1379 ft 9 kts 195°
2026-02-17 11:38 46.23565 6.10721 1382 ft 10 kts 197°
2026-02-17 11:38 46.23531 6.10707 1385 ft 3 kts 196°
2026-02-17 11:38 46.23514 6.10700 1387 ft 5 kts 195°
2026-02-17 11:39 46.23478 6.10736 1390 ft 8 kts 82°
2026-02-17 11:39 46.23491 6.10764 1388 ft 2 kts 53°
2026-02-17 11:39 46.23495 6.10785 1399 ft 3 kts 86°
2026-02-17 11:39 46.23489 6.10799 1399 ft 0 kts 127°
2026-02-17 11:40 46.23468 6.10827 1400 ft 6 kts 139°
2026-02-17 11:40 46.23455 6.10845 1398 ft 0 kts 137°
2026-02-17 11:40 46.23454 6.10846 1398 ft 0 kts 137°
2026-02-17 11:40 46.23451 6.10849 1398 ft 0 kts 137°